OPS 4682 DEB, 38368

Orbit data source: Space-Track

OPS 4682 DEB, 38368 is space debris in LEO originally from a launch on Sat, 03 Apr 1965 UTC launched from the Air Force Western Test Range (AFWTR). Debris objects in space refer to the collection of defunct objects orbiting the Earth. Examples of debris include non-operational satellites, rocket bodies, and fragments generated from explosions, collisions, or faulty payload assembly.

Loading next visibility...
Identifier
38368, 1965-027BV
Orbit
LEO
Country
Flag of USUS
Related business
Manufacturer
Unknown
Mission
Spacecraft
Bus & Motor
Unknown
Mass
Unknown
Launch date (UTC)
1965-04-03 (61 years ago)
Launch vehicle
Unknown
Launch site
Air Force Western Test Range (AFWTR)
Object type
Payload
Rocket body
Debris
Shape & HBR
Unknown shape, 0.1 m
Radar Cross Section
Medium (>0.1 m² and <1 m²)

Expand to show TLE details & history
Last TLE update: 6 days ago

TLE from 6 days ago
0 OPS 4682 DEB
1 38368U 65027BV  26230.34752137 -.00000141  00000-0 -52055-3 0  9991
2 38368  90.2521  14.3840 0021071 342.2002  17.8377 12.96102712670741
Epoch: 2026-08-18T08:20Z
TLE epoch observation values (Epoch: 2026-08-18T08:20:25.846Z)
Latitude
-0.00007°
Longitude
-77.44033°
Altitude
1,264.917 km
Speed
7.23 km/s
True Right ascension
00h 57m 32s
True Declination
0° 00' 00"
Sunlit
Object was in full shadow at epoch
Visualization orbit readout
Latitude
Unknown
Longitude
Unknown
Altitude
Unknown
Speed
Unknown
Apparent Right ascension
Unknown
Apparent Declination
Unknown
Sunlit
N/A
Visualization observer readout
Local Sidereal Time
16:03:01
Azimuth
Unknown
Elevation
Unknown
Doppler factor
Unknown
Orbital elements
Apogee altitude
1,290.652 km
Perigee altitude
1,258.403 km
Semi-major axis
7,652.664 km
Eccentricity
0.00211
Inclination
90.2521°
RAAN
14.384°
Arg. of periapsis
342.2002°
True anomaly
17.91185°
Mean anomaly
17.8377°
Eccentric anomaly
17.87476°
Mean motion
3.24208 °/min
Orbital period
111.04 mins
BSTAR
-0.00052055
Loading maneuver chart data...
Computing Atmospheric mass density...
Loading historical data...
Loading historical data...
Loading historical data...
Loading historical data...
Loading historical data...
Loading historical data...
Loading historical data...

Documentation

Showing up to 5 results
|